Location: Zlin
(49.2330°N, 17.6670°E)
Time: 18:40:38
(UTC+01:00)

CAS-4B - Visible Passes

Search period start: 28 January 2023 00:00
Search period end: 07 February 2023 00:00
Orbit: 515 x 531 km, 43.0° (Epoch: 28 January)

Date Brightness Start Highest point End Pass type
(mag) Time Alt. Az. Time Alt. Az. Time Alt. Az.
29 Jan ? 05:14:37 10° SSE 05:15:23 10° SSE 05:16:10 10° SE visible
29 Jan ? 06:50:57 10° SW 06:54:22 26° SSE 06:57:47 10° ESE visible
30 Jan ? 04:58:59 10° S 05:00:35 12° SSE 05:02:10 10° SE visible
30 Jan ? 06:36:07 10° SW 06:39:36 28° SSE 06:43:06 10° ESE visible
31 Jan ? 04:44:52 13° SSE 04:45:46 14° SSE 04:47:49 10° ESE visible
31 Jan ? 06:21:17 10° SW 06:24:50 29° SSE 06:28:23 10° ESE visible
01 Feb ? 04:31:06 15° SSE 04:31:06 15° SSE 04:33:19 10° ESE visible
01 Feb ? 06:06:27 10° SW 06:10:03 31° S 06:13:38 10° ESE visible
02 Feb ? 04:17:13 15° SE 04:17:13 15° SE 04:18:44 10° ESE visible
02 Feb ? 05:52:17 14° SW 05:55:14 32° S 05:58:52 10° ESE visible
03 Feb ? 04:03:14 14° ESE 04:03:14 14° ESE 04:04:05 10° ESE visible
03 Feb ? 05:38:18 20° SW 05:40:25 33° S 05:44:04 10° ESE visible
04 Feb ? 03:49:10 11° ESE 03:49:10 11° ESE 03:49:23 10° ESE visible
04 Feb ? 05:24:14 26° SW 05:25:34 33° S 05:29:15 10° ESE visible
05 Feb ? 05:10:08 32° SSW 05:10:43 34° S 05:14:24 10° ESE visible
06 Feb ? 04:55:59 34° S 04:55:59 34° S 04:59:32 10° ESE visible
06 Feb ? 06:31:50 10° WSW 06:35:07 24° SSW 06:38:24 10° SE visible
